Weather History for Clarksville, TN

Change the Weather History Date:

Tuesday, October 26, 2010

  Actual Average Record
Temperature  
Mean Temperature 65 °F -  
Max Temperature 78 °F - 84 °F (1991)
Min Temperature 51 °F - 25 °F (1982)
Degree Days  
Heating Degree Days 0    
Month to date heating degree days 109  
Since 1 July heating degree days 116  
Cooling Degree Days 0    
Month to date cooling degree days 22  
Year to date cooling degree days 1950  
Growing Degree Days 16 (Base 50)    
Moisture  
Dew Point 56 °F    
Average Humidity 75    
Maximum Humidity 89    
Minimum Humidity 60    
Precipitation  
Precipitation 0.79 in - 1.22 in (1977)
Month to date precipitation 1.79  
Year to date precipitation 31.80  
Sea Level Pressure  
Sea Level Pressure 29.60 in    
Wind  
Wind Speed 12 mph (SW)    
Max Wind Speed 35 mph    
Max Gust Speed 47 mph    
Visibility 7 miles    
Events Rain , Thunderstorm    
T = Trace of Precipitation, MM = Missing Value Source: NWS Daily Summary

Daily Weather History Graph

Daily Weather History Graph

Search for Another Location

Airport:

Trip Planner

Search our weather history database for the weather conditions in past years. The results will help you decide how hot, cold, wet, or windy it might be!

Date:

Astronomy

Oct. 26, 2010 Rise Set
Actual Time 7:07 AM CDT 5:59 PM CDT
Civil Twilight 6:40 AM CDT 6:25 PM CDT
Nautical Twilight 6:10 AM CDT 6:56 PM CDT
Astronomical Twilight 5:40 AM CDT 7:26 PM CDT
Moon 8:27 PM CDT (10/26) 10:41 AM CDT (10/26)
Length of Visible Light 11h 45m
Length of Day
10h 52m
Waning Gibbous, 87% of the Moon is Illuminated
Oct 26
Waning Gibbous
Oct 30
Last Quarter
Nov 5
New
Nov 13
First Quarter
Nov 21
Full

Hourly Weather History & Observations

Time (CDT) Temp. Dew Point Humidity Pressure Visibility Wind Dir Wind Speed Gust Speed Precip Events Conditions
12:52 AM 71.1 °F 63.0 °F 75% 29.53 in 10.0 mi South 4.6 mph - N/A   Scattered Clouds
1:52 AM 75.0 °F 64.9 °F 71% 29.50 in 10.0 mi South 21.9 mph 33.4 mph N/A   Mostly Cloudy
2:52 AM 75.0 °F 64.9 °F 71% 29.50 in 10.0 mi South 17.3 mph - N/A   Overcast
3:52 AM 75.0 °F 64.9 °F 71% 29.47 in 10.0 mi South 18.4 mph 28.8 mph N/A   Mostly Cloudy
4:52 AM 75.9 °F 64.0 °F 67% 29.47 in 10.0 mi South 16.1 mph 32.2 mph N/A   Overcast
5:52 AM 77.0 °F 63.0 °F 62% 29.46 in 10.0 mi South 25.3 mph 33.4 mph 0.01 in   Overcast
6:52 AM 77.0 °F 63.0 °F 62% 29.47 in 10.0 mi South 23.0 mph 39.1 mph N/A   Overcast
7:52 AM 77.0 °F 64.0 °F 64% 29.46 in 10.0 mi South 28.8 mph 44.9 mph N/A   Overcast
8:52 AM 78.1 °F 64.0 °F 62% 29.47 in 10.0 mi SSW 23.0 mph 41.4 mph N/A   Overcast
9:50 AM 75.2 °F 64.4 °F 69% 29.50 in 10.0 mi SW 18.4 mph 32.2 mph 0.00 in Thunderstorm Overcast
9:52 AM 75.9 °F 64.9 °F 69% 29.49 in 10.0 mi SSW 20.7 mph 29.9 mph 0.00 in Thunderstorm Overcast
10:05 AM 69.8 °F 60.8 °F 73% 29.55 in 10.0 mi WNW 24.2 mph 36.8 mph N/A   Overcast
10:12 AM 62.6 °F 55.4 °F 77% 29.55 in 4.0 mi WNW 25.3 mph 36.8 mph 0.03 in Rain Light Rain
10:19 AM 60.8 °F 55.4 °F 82% 29.56 in 2.5 mi WNW 16.1 mph 36.8 mph 0.04 in Rain Light Rain
10:22 AM 60.8 °F 55.4 °F 82% 29.57 in 5.0 mi WNW 20.7 mph 26.5 mph 0.04 in Rain Light Rain
10:32 AM 60.8 °F 55.4 °F 82% 29.58 in 1.8 mi WNW 21.9 mph 31.1 mph 0.11 in Rain Rain
10:36 AM 59.0 °F 55.4 °F 88% 29.58 in 0.8 mi WNW 24.2 mph 31.1 mph 0.21 in Rain Heavy Rain
10:39 AM 59.0 °F 55.4 °F 88% 29.58 in 0.8 mi WNW 19.6 mph 31.1 mph 0.27 in Rain , Thunderstorm Heavy Rain
10:46 AM 57.2 °F 55.4 °F 94% 29.58 in 1.0 mi WNW 19.6 mph 27.6 mph 0.31 in Rain , Thunderstorm Heavy Rain
10:52 AM 59.0 °F 55.0 °F 87% 29.58 in 4.0 mi WNW 18.4 mph 27.6 mph 0.31 in Rain , Thunderstorm Light Rain
10:56 AM 59.0 °F 55.4 °F 88% 29.58 in 2.5 mi WNW 19.6 mph 28.8 mph 0.08 in Rain Rain
10:59 AM 59.0 °F 55.4 °F 88% 29.59 in 0.8 mi WNW 17.3 mph 28.8 mph 0.19 in Rain , Thunderstorm Heavy Rain
11:08 AM 59.0 °F 55.4 °F 88% 29.60 in 1.2 mi WNW 15.0 mph 28.8 mph 0.22 in Rain , Thunderstorm Light Rain
11:10 AM 59.0 °F 55.4 °F 88% 29.60 in 3.0 mi WNW 17.3 mph 28.8 mph 0.23 in Rain , Thunderstorm Light Rain
11:20 AM 57.2 °F 55.4 °F 94% 29.61 in 8.0 mi West 11.5 mph 21.9 mph 0.23 in Rain Light Rain
11:52 AM 57.9 °F 55.0 °F 90% 29.62 in 10.0 mi West 9.2 mph - 0.23 in Rain Light Rain
12:19 PM 57.2 °F 53.6 °F 88% 29.63 in 10.0 mi WNW 6.9 mph - 0.01 in Rain Light Rain
12:37 PM 55.4 °F 51.8 °F 88% 29.64 in 5.0 mi West 12.7 mph 25.3 mph 0.02 in Rain Light Rain
12:49 PM 55.4 °F 51.8 °F 88% 29.65 in 1.5 mi WSW 8.1 mph - 0.07 in Rain Heavy Rain
12:52 PM 55.0 °F 52.0 °F 89% 29.65 in 1.2 mi WSW 8.1 mph - 0.09 in Rain Heavy Rain
1:06 PM 55.4 °F 53.6 °F 94% 29.64 in 2.0 mi WSW 5.8 mph - 0.06 in Rain Light Rain
1:14 PM 55.4 °F 51.8 °F 88% 29.63 in 8.0 mi WSW 9.2 mph - 0.06 in Rain Light Rain
1:52 PM 55.0 °F 51.1 °F 86% 29.63 in 5.0 mi SW 8.1 mph - 0.10 in Rain Light Rain
2:52 PM 55.0 °F 51.1 °F 86% 29.63 in 10.0 mi South 9.2 mph - 0.04 in   Overcast
3:52 PM 55.0 °F 51.1 °F 86% 29.64 in 10.0 mi SSW 9.2 mph - 0.01 in   Overcast
4:52 PM 55.0 °F 51.1 °F 86% 29.66 in 10.0 mi South 9.2 mph - N/A   Overcast
5:52 PM 55.0 °F 51.1 °F 86% 29.67 in 10.0 mi South 6.9 mph - N/A   Overcast
6:52 PM 55.9 °F 51.1 °F 84% 29.70 in 10.0 mi South 5.8 mph - N/A   Mostly Cloudy
7:52 PM 55.0 °F 50.0 °F 83% 29.73 in 10.0 mi South 5.8 mph - N/A   Mostly Cloudy
8:52 PM 55.0 °F 51.1 °F 86% 29.75 in 10.0 mi South 4.6 mph - N/A   Overcast
9:52 PM 54.0 °F 50.0 °F 86% 29.77 in 10.0 mi South 3.5 mph - N/A   Partly Cloudy
10:52 PM 54.0 °F 50.0 °F 86% 29.79 in 10.0 mi Calm Calm - N/A   Mostly Cloudy
11:52 PM 52.0 °F 48.9 °F 89% 29.81 in 10.0 mi Calm Calm - N/A   Clear